Flag for Norway Weather past 2 weeks in Randaberg, Norway

Now
45 °F

Passing clouds.


Feels Like: 44 °F
Forecast: 40 / 43 °F
Wind: 3 mph from West

Location: Stavanger / Sola

Current Time: Jan 26, 2015 at 7:46:46 AM

Latest Report: Jan 26, 2015 at 7:00 AM


Visibility: 5 mi

Pressure: 29.77 "Hg

Humidity: 93%

Dew point: 43 °F

Location of RandabergLocation

Historic Weather in Randaberg — Graph

°F

Randaberg temperature yesterday

Maximum temperature yesterday: 43 °F (at 9:00 PM)
Minimum temperature yesterday: 33 °F (at 2:00 AM)
Average temperature yesterday: 38 °F

Past Weeks' High & Low Weather Summary

 TemperatureHumidityPressure
High48 °F (Jan 12, 12:00 PM)98% (Jan 26, 3:00 AM)30.24 "Hg (Jan 26, 3:00 AM)
Low23 °F (Jan 22, 7:00 AM)48% (Jan 21, 3:00 PM)28.61 "Hg (Jan 16, 3:00 AM)
Average38 °F77%29.64 "Hg
* Reported Jan 11 6:00 AM — Jan 26 6:00 AM, Randaberg, Weather by CustomWeather, © 2014

Note: Actual official high and low records may vary slightly from our data, if they occured in-between our weather recording intervals... More about our weather records

Advertising

Randaberg weather history for previous 24 hours

 ConditionsComfort  
Time TempWeatherWind HumidityBarometerVisibility
6:00 AM
Jan 26
45 °FLight rain. Low clouds.6 mph97%29.78 "Hg3 mi
5:00 AM45 °FLight rain. Fog.2 mph98%29.79 "Hg3 mi
3:00 AM46 °FLight rain. Low clouds.6 mph98%29.81 "Hg4 mi
2:00 AM44 °FRain. Low clouds.6 mph97%29.82 "Hg3 mi
1:00 AM44 °FLight rain. Low clouds.8 mph97%29.84 "Hg2 mi
12:00 AM44 °FDrizzle. Low clouds.9 mph96%29.88 "Hg2 mi
11:00 PM
Jan 25
43 °FLight rain. Low clouds.9 mph96%29.90 "Hg2 mi
10:00 PM43 °FRain showers. Low clouds.9 mph96%29.92 "Hg3 mi
9:00 PM43 °FRain showers. Low clouds.10 mph93%29.93 "Hg18 mi
8:00 PM43 °FLight rain. Low clouds.9 mph96%29.97 "Hg4 mi
7:00 PM42 °FRain showers. Low clouds.8 mph95%29.99 "Hg2 mi
6:00 PM42 °FRain showers. Low clouds.8 mph92%30.02 "Hg5 mi
5:00 PM41 °FRain showers. Overcast.7 mph92%30.02 "Hg6 mi
4:00 PM40 °FSprinkles. Overcast.7 mph90%30.05 "Hg14 mi
3:00 PM40 °FOvercast.5 mph93%30.06 "Hg16 mi
2:00 PM40 °FRain showers. Overcast.5 mph93%30.08 "Hg3 mi
1:00 PM39 °FScattered clouds.5 mph90%30.10 "Hg12 mi
12:00 PM38 °FFog.3 mph89%30.11 "Hg12 mi
11:00 AM36 °FScattered clouds.5 mph92%30.11 "Hg12 mi
10:00 AM36 °FRain showers. Cloudy.3 mph94%30.12 "Hg7 mi
9:00 AM35 °FRain showers. Overcast.3 mph94%30.12 "Hg11 mi
8:00 AM35 °FPassing clouds.3 mph93%30.11 "Hg9 mi
7:00 AM35 °FOvercast.3 mph93%30.09 "Hg11 mi
Weather by CustomWeather, © 2014

See weather overviewHow to use our weather pages